Aktuell
News
Messwerte
Diagramme
Archiv
Wettervorhersage
Regen
Wettergefahren

Astro & Geo
Health
Pegel
Gästebuch
Kontakt
Impressum
Datenschutz
App

Leicht bewölkt bei 10.0 °C – Luftdruck: 1018.4 hPa – Wind: NW 0.0 km/h
Messwerte von 22:45 Uhr; Warnsymbol: Datenbasis DWD; Wetterzustand powered by OpenWeatherMap, CC BY-SA 4.0
Übersicht
Heute
Gestern
Vor 1 Jahr
Info
Vor 1 Jahr
 
Messwerte von Sonntag, 19.04.2020
Symbol
Zeitpunkt
Wetter-
zustand
Zeitpunkt
Temperatur
Zeitpunkt
Luftfeuchte
Taupunkt
Zeitpunkt
Luftdruck
Zeitpunkt
Wind
Zeitpunkt
Windböen
Max 15 Min.
Wind-
richtung
Zeitpunkt
Regen
Summe 1 h
Regenrate
Max 15 Min.
UV-Index
Max 15 Min.
Pegel Köln
Zeitpunkt
Warnlage
Zeitpunkt
00:15 Leicht bewölkt3 12.5 °C 82 %
9.5 °C
1015.8 hPa 4.7 km/h
1 Bft
7.9 km/h
2 Bft
WNW -
0.0 mm/h
0.0 186 cm
00:30 Leicht bewölkt3 12.4 °C 82 %
9.4 °C
1015.8 hPa 3.2 km/h
1 Bft
7.9 km/h
2 Bft
WNW -
0.0 mm/h
0.0 186 cm
00:45 Wolkig3 12.3 °C 83 %
9.5 °C
1015.8 hPa 3.2 km/h
1 Bft
7.9 km/h
2 Bft
NW -
0.0 mm/h
0.0 186 cm
01:00 Leicht bewölkt3 12.3 °C 83 %
9.5 °C
1015.8 hPa 3.2 km/h
1 Bft
6.5 km/h
2 Bft
NW 0.00 mm
0.0 mm/h
0.0 186 cm
01:15 Wolkig3 12.2 °C 83 %
9.4 °C
1015.8 hPa 3.2 km/h
1 Bft
7.9 km/h
2 Bft
WNW -
0.0 mm/h
0.0 186 cm
01:30 Wolkig3 12.0 °C 84 %
9.4 °C
1015.7 hPa 3.2 km/h
1 Bft
9.7 km/h
2 Bft
WSW -
0.0 mm/h
0.0 186 cm
01:45 Wolkig3 11.8 °C 85 %
9.4 °C
1015.7 hPa 3.2 km/h
1 Bft
6.5 km/h
2 Bft
WNW -
0.0 mm/h
0.0 186 cm
02:00 Wolkig3 11.5 °C 86 %
9.2 °C
1015.8 hPa 2.8 km/h
1 Bft
4.7 km/h
1 Bft
NW 0.00 mm
0.0 mm/h
0.0 186 cm
02:15 Wolkig3 11.3 °C 87 %
9.2 °C
1015.9 hPa 3.2 km/h
1 Bft
4.7 km/h
1 Bft
NNW -
0.0 mm/h
0.0 186 cm
02:30 Wolkig3 11.3 °C 87 %
9.2 °C
1015.9 hPa 3.2 km/h
1 Bft
6.5 km/h
2 Bft
NW -
0.0 mm/h
0.0 185 cm
02:45 Wolkig3 11.4 °C 87 %
9.3 °C
1016.0 hPa 3.2 km/h
1 Bft
6.5 km/h
2 Bft
NW -
0.0 mm/h
0.0 185 cm
03:00 Wolkig3 11.5 °C 87 %
9.4 °C
1015.9 hPa 3.2 km/h
1 Bft
7.9 km/h
2 Bft
NW 0.00 mm
0.0 mm/h
0.0 184 cm
03:15 Stark bewölkt3 11.5 °C 86 %
9.2 °C
1015.9 hPa 3.6 km/h
1 Bft
7.9 km/h
2 Bft
WNW -
0.0 mm/h
0.0 183 cm
03:30 Wolkig3 11.5 °C 86 %
9.2 °C
1016.0 hPa 4.7 km/h
1 Bft
11.2 km/h
2 Bft
WNW -
0.0 mm/h
0.0 185 cm
03:45 Wolkig3 11.6 °C 86 %
9.3 °C
1015.9 hPa 4.7 km/h
1 Bft
9.7 km/h
2 Bft
NW -
0.0 mm/h
0.0 183 cm
04:00 Stark bewölkt3 11.5 °C 86 %
9.2 °C
1016.1 hPa 3.2 km/h
1 Bft
7.9 km/h
2 Bft
WNW 0.00 mm
0.0 mm/h
0.0 184 cm
04:15 Stark bewölkt3 11.4 °C 86 %
9.1 °C
1016.1 hPa 4.7 km/h
1 Bft
11.2 km/h
2 Bft
WNW -
0.0 mm/h
0.0 184 cm
04:30 Wolkig3 11.3 °C 87 %
9.2 °C
1016.2 hPa 3.2 km/h
1 Bft
9.7 km/h
2 Bft
NW -
0.0 mm/h
0.0 183 cm
04:45 Stark bewölkt3 11.3 °C 87 %
9.2 °C
1016.3 hPa 3.2 km/h
1 Bft
7.9 km/h
2 Bft
N -
0.0 mm/h
0.0 183 cm
05:00 Stark bewölkt3 11.3 °C 86 %
9.0 °C
1016.2 hPa 2.9 km/h
1 Bft
7.9 km/h
2 Bft
NW 0.00 mm
0.0 mm/h
0.0 184 cm
05:15 Stark bewölkt3 11.3 °C 86 %
9.0 °C
1016.3 hPa 3.2 km/h
1 Bft
7.9 km/h
2 Bft
WNW -
0.0 mm/h
0.0 184 cm
05:30 Wolkig3 11.3 °C 86 %
9.0 °C
1016.3 hPa 3.2 km/h
1 Bft
6.5 km/h
2 Bft
W -
0.0 mm/h
0.0 184 cm
05:45 Stark bewölkt3 11.3 °C 86 %
9.0 °C
1016.4 hPa 3.2 km/h
1 Bft
6.5 km/h
2 Bft
WNW -
0.0 mm/h
0.0 184 cm
06:00 Stark bewölkt3 11.2 °C 86 %
8.9 °C
1016.4 hPa 3.2 km/h
1 Bft
7.9 km/h
2 Bft
WNW 0.00 mm
0.0 mm/h
0.0 184 cm
06:15 Stark bewölkt3 11.2 °C 86 %
8.9 °C
1016.5 hPa 3.2 km/h
1 Bft
6.5 km/h
2 Bft
NW -
0.0 mm/h
0.0 184 cm
06:30 Wolkig3 11.1 °C 85 %
8.7 °C
1016.5 hPa 3.2 km/h
1 Bft
7.9 km/h
2 Bft
NW -
0.0 mm/h
0.0 183 cm
06:45 Wolkig3 11.2 °C 85 %
8.8 °C
1016.6 hPa 1.4 km/h
1 Bft
6.5 km/h
2 Bft
WNW -
0.0 mm/h
0.0 184 cm
07:00 Stark bewölkt3 11.1 °C 84 %
8.5 °C
1016.7 hPa 3.2 km/h
1 Bft
7.9 km/h
2 Bft
NW 0.00 mm
0.0 mm/h
0.0 184 cm
07:15 Stark bewölkt3 11.1 °C 84 %
8.5 °C
1016.6 hPa 3.2 km/h
1 Bft
7.9 km/h
2 Bft
NW -
0.0 mm/h
0.0 184 cm
07:30 Wolkig3 11.1 °C 84 %
8.5 °C
1016.7 hPa 3.2 km/h
1 Bft
11.2 km/h
2 Bft
NW -
0.0 mm/h
0.0 183 cm
07:45 Wolkig3 11.1 °C 84 %
8.5 °C
1016.6 hPa 3.2 km/h
1 Bft
7.9 km/h
2 Bft
W -
0.0 mm/h
0.0 183 cm
08:00 Bedeckt2 11.1 °C 84 %
8.5 °C
1016.7 hPa 3.2 km/h
1 Bft
9.7 km/h
2 Bft
NW 0.00 mm
0.0 mm/h
0.0 183 cm
08:15 Bedeckt2 11.4 °C 83 %
8.6 °C
1016.6 hPa 3.2 km/h
1 Bft
9.7 km/h
2 Bft
NW -
0.0 mm/h
0.0 183 cm
08:30 Bedeckt2 11.2 °C 83 %
8.4 °C
1016.6 hPa 4.7 km/h
1 Bft
7.9 km/h
2 Bft
NNW -
0.0 mm/h
0.0 185 cm
08:45 Bedeckt2 11.3 °C 83 %
8.5 °C
1016.6 hPa 4.7 km/h
1 Bft
9.7 km/h
2 Bft
NNW -
0.0 mm/h
0.0 183 cm
09:00 Bedeckt2 11.3 °C 83 %
8.5 °C
1016.7 hPa 3.2 km/h
1 Bft
7.9 km/h
2 Bft
NW 0.00 mm
0.0 mm/h
0.0 183 cm
09:15 Bedeckt2 11.2 °C 84 %
8.6 °C
1016.8 hPa 3.2 km/h
1 Bft
7.9 km/h
2 Bft
NNW -
0.0 mm/h
0.0 183 cm
09:30 Bedeckt2 11.3 °C 83 %
8.5 °C
1016.7 hPa 4.7 km/h
1 Bft
13.0 km/h
3 Bft
N -
0.0 mm/h
0.0 183 cm
09:45 Bedeckt2 11.2 °C 83 %
8.4 °C
1016.8 hPa 4.7 km/h
1 Bft
13.0 km/h
3 Bft
NNW -
0.0 mm/h
0.0 184 cm
10:00 Bedeckt2 11.2 °C 83 %
8.4 °C
1017.0 hPa 4.7 km/h
1 Bft
11.2 km/h
2 Bft
WNW 0.00 mm
0.0 mm/h
0.0 183 cm
10:15 Bedeckt2 11.1 °C 83 %
8.3 °C
1016.9 hPa 3.2 km/h
1 Bft
9.7 km/h
2 Bft
NW -
0.0 mm/h
0.0 184 cm
10:30 Bedeckt2 11.9 °C 82 %
8.9 °C
1016.9 hPa 3.2 km/h
1 Bft
7.9 km/h
2 Bft
NNW -
0.0 mm/h
1.8 183 cm
10:45 Bedeckt2 11.9 °C 81 %
8.7 °C
1017.2 hPa 4.7 km/h
1 Bft
13.0 km/h
3 Bft
NNW -
0.0 mm/h
1.5 183 cm
11:00 Bedeckt2 11.6 °C 81 %
8.5 °C
1017.3 hPa 4.7 km/h
1 Bft
14.4 km/h
3 Bft
W 0.00 mm
0.0 mm/h
1.0 185 cm
11:15 Bedeckt2 11.9 °C 81 %
8.7 °C
1017.4 hPa 6.5 km/h
2 Bft
13.0 km/h
3 Bft
NW -
0.0 mm/h
1.0 183 cm
11:30 Bedeckt2 12.1 °C 81 %
8.9 °C
1017.5 hPa 4.7 km/h
1 Bft
14.4 km/h
3 Bft
WNW -
0.0 mm/h
1.1 183 cm
11:45 Bedeckt2 12.4 °C 80 %
9.0 °C
1017.5 hPa 4.7 km/h
1 Bft
13.0 km/h
3 Bft
NNW -
0.0 mm/h
1.5 183 cm
12:00 Bedeckt2 12.6 °C 80 %
9.2 °C
1017.5 hPa 6.5 km/h
2 Bft
14.4 km/h
3 Bft
WNW 0.00 mm
0.0 mm/h
1.6 185 cm
12:15 Bedeckt2 12.5 °C 80 %
9.1 °C
1017.4 hPa 6.5 km/h
2 Bft
16.2 km/h
3 Bft
NNW -
0.0 mm/h
1.3 183 cm
12:30 Bedeckt2 12.6 °C 81 %
9.4 °C
1017.3 hPa 4.7 km/h
1 Bft
14.4 km/h
3 Bft
N -
0.0 mm/h
0.5 183 cm
12:45 Bedeckt2 12.5 °C 81 %
9.3 °C
1017.3 hPa 3.2 km/h
1 Bft
13.0 km/h
3 Bft
NNW -
0.0 mm/h
0.0 185 cm
13:00 Bedeckt2 12.6 °C 81 %
9.4 °C
1017.3 hPa 3.2 km/h
1 Bft
9.7 km/h
2 Bft
N 0.00 mm
0.0 mm/h
0.8 184 cm
13:15 Bedeckt2 12.7 °C 80 %
9.3 °C
1017.3 hPa 2.8 km/h
1 Bft
6.5 km/h
2 Bft
NNW -
0.0 mm/h
0.6 183 cm
13:30 Bedeckt2 13.0 °C 80 %
9.6 °C
1017.3 hPa 1.4 km/h
1 Bft
4.7 km/h
1 Bft
NNW -
0.0 mm/h
0.0 184 cm
13:45 Bedeckt2 13.0 °C 81 %
9.8 °C
1017.2 hPa 1.0 km/h
1 Bft
3.2 km/h
1 Bft
WSW -
0.0 mm/h
1.2 183 cm
14:00 Bedeckt2 13.4 °C 78 %
9.6 °C
1017.2 hPa 2.8 km/h
1 Bft
6.5 km/h
2 Bft
NW 0.00 mm
0.0 mm/h
2.1 183 cm
14:15 Bedeckt2 14.1 °C 75 %
9.7 °C
1017.1 hPa 3.2 km/h
1 Bft
6.5 km/h
2 Bft
NW -
0.0 mm/h
2.5 185 cm
14:30 Stark bewölkt3 15.7 °C 70 %
10.2 °C
1017.0 hPa 4.7 km/h
1 Bft
11.2 km/h
2 Bft
OSO -
0.0 mm/h
2.2 185 cm
14:45 Stark bewölkt3 15.9 °C 67 %
9.8 °C
1016.9 hPa 3.2 km/h
1 Bft
9.7 km/h
2 Bft
NNO -
0.0 mm/h
2.3 184 cm
15:00 Stark bewölkt3 15.8 °C 66 %
9.5 °C
1016.8 hPa 2.8 km/h
1 Bft
6.5 km/h
2 Bft
NNO 0.00 mm
0.0 mm/h
2.2 185 cm
15:15 Stark bewölkt3 16.2 °C 64 %
9.4 °C
1016.7 hPa 4.7 km/h
1 Bft
9.7 km/h
2 Bft
NO -
0.0 mm/h
2.2 186 cm
15:30 Stark bewölkt3 16.3 °C 64 %
9.5 °C
1016.6 hPa 3.2 km/h
1 Bft
13.0 km/h
3 Bft
ONO -
0.0 mm/h
2.2 185 cm
15:45 Wolkig3 16.4 °C 65 %
9.8 °C
1016.3 hPa 4.7 km/h
1 Bft
13.0 km/h
3 Bft
NO -
0.0 mm/h
2.1 185 cm
16:00 Wolkig3 16.7 °C 63 %
9.6 °C
1016.2 hPa 1.4 km/h
1 Bft
9.7 km/h
2 Bft
NNO 0.00 mm
0.0 mm/h
2.6 186 cm
16:15 Leicht bewölkt3 19.3 °C 51 %
8.9 °C
1016.1 hPa 3.2 km/h
1 Bft
9.7 km/h
2 Bft
NO -
0.0 mm/h
3.5 184 cm
16:30 Leicht bewölkt3 20.1 °C 49 %
9.0 °C
1015.9 hPa 1.9 km/h
1 Bft
9.7 km/h
2 Bft
S -
0.0 mm/h
3.2 185 cm
16:45 Wolkig3 20.1 °C 46 %
8.1 °C
1015.7 hPa 3.2 km/h
1 Bft
13.0 km/h
3 Bft
SSW -
0.0 mm/h
3.1 186 cm
17:00 Wolkig3 18.4 °C 49 %
7.5 °C
1015.7 hPa 1.4 km/h
1 Bft
9.7 km/h
2 Bft
SO 0.00 mm
0.0 mm/h
2.0 184 cm
17:15 Wolkig3 18.4 °C 49 %
7.5 °C
1015.6 hPa 3.2 km/h
1 Bft
14.4 km/h
3 Bft
S -
0.0 mm/h
1.7 186 cm
17:30 Stark bewölkt3 18.0 °C 47 %
6.5 °C
1015.5 hPa 4.7 km/h
1 Bft
19.4 km/h
3 Bft
ONO -
0.0 mm/h
1.0 185 cm
17:45 Wolkig3 17.6 °C 48 %
6.5 °C
1015.6 hPa 4.7 km/h
1 Bft
14.4 km/h
3 Bft
SSW -
0.0 mm/h
1.1 184 cm
18:00 Wolkig3 17.9 °C 46 %
6.1 °C
1015.6 hPa 2.7 km/h
1 Bft
14.4 km/h
3 Bft
NO 0.00 mm
0.0 mm/h
1.3 185 cm
18:15 Wolkig3 17.8 °C 45 %
5.7 °C
1015.6 hPa 3.2 km/h
1 Bft
13.0 km/h
3 Bft
OSO -
0.0 mm/h
1.0 184 cm
18:30 Wolkig3 17.6 °C 45 %
5.5 °C
1015.6 hPa 6.5 km/h
2 Bft
16.2 km/h
3 Bft
OSO -
0.0 mm/h
0.6 185 cm
18:45 Leicht bewölkt3 17.2 °C 45 %
5.2 °C
1015.7 hPa 6.5 km/h
2 Bft
14.4 km/h
3 Bft
OSO -
0.0 mm/h
0.0 185 cm
19:00 Leicht bewölkt3 17.1 °C 45 %
5.1 °C
1015.7 hPa 4.7 km/h
1 Bft
16.2 km/h
3 Bft
OSO 0.00 mm
0.0 mm/h
0.0 185 cm
19:15 Leicht bewölkt3 17.0 °C 46 %
5.3 °C
1015.8 hPa 3.2 km/h
1 Bft
17.6 km/h
3 Bft
O -
0.0 mm/h
0.0 185 cm
19:30 Leicht bewölkt3 16.8 °C 46 %
5.1 °C
1016.0 hPa 7.9 km/h
2 Bft
17.6 km/h
3 Bft
O -
0.0 mm/h
0.0 184 cm
19:45 Wolkig3 16.5 °C 47 %
5.2 °C
1016.2 hPa 7.9 km/h
2 Bft
19.4 km/h
3 Bft
N -
0.0 mm/h
0.0 183 cm
20:00 Wolkig3 16.2 °C 47 %
4.9 °C
1016.4 hPa 7.9 km/h
2 Bft
19.4 km/h
3 Bft
ONO 0.00 mm
0.0 mm/h
0.0 186 cm
20:15 Wolkig3 16.1 °C 47 %
4.8 °C
1016.6 hPa 4.7 km/h
1 Bft
19.4 km/h
3 Bft
ONO -
0.0 mm/h
0.0 186 cm
20:30 Wolkig3 15.8 °C 46 %
4.2 °C
1016.7 hPa 7.9 km/h
2 Bft
20.9 km/h
4 Bft
ONO -
0.0 mm/h
0.0 186 cm
20:45 Wolkig3 15.4 °C 47 %
4.1 °C
1016.8 hPa 4.7 km/h
1 Bft
16.2 km/h
3 Bft
O -
0.0 mm/h
0.0 185 cm
21:00 Leicht bewölkt3 15.0 °C 47 %
3.8 °C
1017.0 hPa 6.5 km/h
2 Bft
16.2 km/h
3 Bft
ONO 0.00 mm
0.0 mm/h
0.0 185 cm
21:15 Leicht bewölkt3 14.8 °C 45 %
3.0 °C
1017.2 hPa 9.7 km/h
2 Bft
19.4 km/h
3 Bft
OSO -
0.0 mm/h
0.0 185 cm
21:30 Leicht bewölkt3 14.5 °C 43 %
2.1 °C
1017.2 hPa 7.9 km/h
2 Bft
20.9 km/h
4 Bft
ONO -
0.0 mm/h
0.0 185 cm
21:45 Wolkenlos2 14.2 °C 42 %
1.5 °C
1017.3 hPa 9.7 km/h
2 Bft
24.1 km/h
4 Bft
WNW -
0.0 mm/h
0.0 185 cm
22:00 Wolkenlos2 13.8 °C 42 %
1.1 °C
1017.5 hPa 7.9 km/h
2 Bft
24.1 km/h
4 Bft
NNO 0.00 mm
0.0 mm/h
0.0 186 cm
22:15 Wolkenlos2 13.5 °C 41 %
0.5 °C
1017.5 hPa 9.7 km/h
2 Bft
25.9 km/h
4 Bft
SO -
0.0 mm/h
0.0 185 cm
22:30 Wolkenlos2 13.2 °C 40 %
-0.1 °C
1017.6 hPa 7.9 km/h
2 Bft
24.1 km/h
4 Bft
O -
0.0 mm/h
0.0 186 cm
22:45 Wolkenlos2 12.9 °C 41 %
-0.0 °C
1017.8 hPa 5.1 km/h
1 Bft
19.4 km/h
3 Bft
ONO -
0.0 mm/h
0.0 186 cm
23:00 Wolkenlos2 12.5 °C 42 %
-0.1 °C
1017.9 hPa 4.7 km/h
1 Bft
14.4 km/h
3 Bft
NO 0.00 mm
0.0 mm/h
0.0 186 cm
23:15 Wolkenlos2 12.3 °C 42 %
-0.2 °C
1018.1 hPa 6.5 km/h
2 Bft
17.6 km/h
3 Bft
O -
0.0 mm/h
0.0 186 cm
23:30 Wolkenlos2 12.1 °C 43 %
-0.1 °C
1018.1 hPa 4.7 km/h
1 Bft
16.2 km/h
3 Bft
SSO -
0.0 mm/h
0.0 186 cm
23:45 Wolkenlos2 11.8 °C 43 %
-0.4 °C
1018.1 hPa 4.7 km/h
1 Bft
14.4 km/h
3 Bft
NO -
0.0 mm/h
0.0 186 cm
00:00 Wolkenlos2 11.6 °C 44 %
-0.2 °C
1018.3 hPa 3.8 km/h
1 Bft
17.6 km/h
3 Bft
O 0.00 mm
0.0 mm/h
0.0 185 cm
Datenbasis Wetterzustand: ¹ Wetterstation Köln-Nippes (Stellwerk), ² powered by , ³ powered by OpenWeatherMap, CC BY-SA 4.0; Warnlage: DWD, Pegelonline, LANUV; Pegel Köln: Pegelonline
 
Extrem- und Durchschnittswerte
  Temperatur Luftfeuchte Luftdruck Wind Windböen Wind-
richtung
Regen UV-Index Pegel Köln KKT
Min

Max

Ø
11.1 °C
05:59 Uhr
20.7 °C
16:34 Uhr
13.7 °C
40.0 %
22:27 Uhr
87.0 %
02:11 Uhr
68.5 %
1015.5 hPa
17:24 Uhr
1018.3 hPa
23:53 Uhr
1016.6 hPa
 
 
11.2 km/h
22:06 Uhr
4.4 km/h
 
 
25.9 km/h
22:10 Uhr
 
 
 
NW
 
 
 
 
0.00 mm
 
 
 
 
3.5
16:04 Uhr
 
183 cm
03:15 Uhr
186 cm
00:15 Uhr
 
  Taupunkt   Wind Windböen   Regenrate Ozon Sonne Mond
Min

Max

Ø
-0.4 °C
22:39 Uhr
10.4 °C
14:29 Uhr
7.4 °C
   
 
2 Bft
22:06 Uhr
4.4 km/h
 
 
4 Bft
22:10 Uhr
 
   
 
0.0 mm/h
00:00 Uhr
 
 
Hürth
97 μg/m³
19:00 Uhr
 
▲ 06:28 Uhr
▼ 20:35 Uhr
▲ 05:49 Uhr
▼ 16:38 Uhr
KKT = Klimatologischer Kenntag: ET = Eistag, FT = Frosttag, KT = Kalter Tag, ST = Sommertag, HT = Hitzetag, TN = Tropennacht, NT = Niederschlagstag, SH = Schneehöhe (Max Tag); Datenbasis Ozon: LANUV, Land NRW, dl-de/by-2-0
Für dieses Datum steht leider (noch) kein Tagesrückblick zur Verfügung.
 
Tagesgrafik
Grafik zum Vergrößern anklicken
 
Detaillierte Warnlage
















19.04.20

19.04.20

19.04.20

19.04.20

19.04.20

19.04.20

19.04.20
Datenbasis: DWD, Pegelonline, LANUV


Zurück zur Eingabemaske